Home   Weather   Coesfeld   Past weeks

Flag for Germany Past Weather in Coesfeld, North Rhine-Westphalia, Germany — Yesterday and Last 2 Weeks

Now
48 °F

Cool.


Feels Like: 42 °F
Forecast: 44 / 51 °F
Wind: 15 mph from West

Location: Rheine-Bentlage

Current Time: Feb 21, 2017 at 4:41:12 am

Latest Report: Feb 21, 2017 at 3:20 am


Visibility: N/A

Pressure: 29.86 "Hg

Humidity: 87%

Dew Point: 45 °F

Location of CoesfeldLocation

Past Weather in Coesfeld — Graph

°F

Coesfeld Temperature Yesterday

Maximum temperature yesterday: 50 °F (at 5:20 pm)
Minimum temperature yesterday: 43 °F (at 12:20 am)
Average temperature yesterday: 47 °F

High & Low Weather Summary for the Past Weeks

 TemperatureHumidityPressure
High54 °F (Feb 15, 2:20 pm)100% (Feb 6, 5:20 am)30.51 "Hg (Feb 6, 5:20 am)
Low27 °F (Feb 9, 3:20 am)47% (Feb 15, 2:20 pm)29.86 "Hg (Feb 20, 7:20 pm)
Average36 °F82%30.26 "Hg
* Reported Feb 6 3:20 am — Feb 21 3:20 am, Coesfeld, Weather by CustomWeather, © 2017

Note: Actual official high and low records may vary slightly from our data, if they occured in-between our weather recording intervals... More about our weather records

Advertising

Coesfeld Weather History for the Previous 24 Hours

Scroll right to see more
 ConditionsComfort  
Time TempWeatherWind HumidityBarometerVisibility
3:20 am
Tue, Feb 21
48 °FCool.15 mph87%29.86 "HgN/A
2:20 am50 °FCool.16 mph88%29.86 "HgN/A
1:20 am50 °FCool.14 mph88%29.86 "HgN/A
12:20 am50 °FCool.14 mph94%29.86 "HgN/A
11:20 pm
Mon, Feb 20
50 °FCool.14 mph94%29.86 "HgN/A
10:20 pm50 °FCool.13 mph94%29.86 "HgN/A
9:20 pm50 °FCool.14 mph94%29.86 "HgN/A
8:20 pm50 °FCool.12 mph94%29.86 "HgN/A
7:20 pm50 °FCool.13 mph94%29.86 "HgN/A
6:20 pm50 °FCool.15 mph94%29.89 "HgN/A
5:20 pm50 °FCool.12 mph94%29.89 "HgN/A
4:20 pm48 °FCool.14 mph94%29.89 "HgN/A
3:20 pm48 °FDrizzle. Fog.12 mph94%29.89 "Hg2 mi
2:44 pm48 °FDrizzle. Fog.14 mph94%29.89 "Hg1 mi
2:20 pm48 °FDrizzle. Fog.14 mph94%29.89 "Hg2 mi
2:08 pm48 °FDrizzle. Fog.14 mph94%29.89 "Hg2 mi
1:20 pm48 °FDrizzle. Fog.15 mph94%29.92 "Hg1 mi
12:20 pm48 °FDrizzle. Fog.15 mph87%29.95 "Hg1 mi
11:40 am46 °FDrizzle. Fog.14 mph93%29.95 "Hg1 mi
11:20 am46 °FDrizzle. Fog.14 mph93%29.98 "Hg2 mi
10:20 am46 °FFog.13 mph93%29.98 "Hg3 mi
9:20 am46 °FFog.12 mph87%29.98 "Hg2 mi
8:20 am45 °FLight rain. Fog.12 mph93%30.01 "Hg2 mi
7:20 am45 °FFog.9 mph93%30.01 "Hg2 mi
6:20 am45 °FDrizzle. Fog.9 mph93%30.04 "Hg2 mi
5:20 am45 °FQuite cool.9 mph87%30.04 "HgN/A
4:20 am43 °FQuite cool.7 mph93%30.04 "HgN/A
Weather by CustomWeather, © 2017

See weather overviewHow to use our weather pages